Regional Weather Roundup
Issued by NWS Wakefield, VA

Home | Current Version | Previous Version | Text Only | Print | Product List | Glossary Off
Versions: 1 2 3 4 5 6 7 8 9 10 11 12 13 14 15 16 17 18 19 20 21 22 23 24 25 26 27 28 29 30 31 32 33 34 35 36 37 38 39 40 41 42 43 44 45 46 47 48 49 50

540
ASUS41 KAKQ 240815
RWRAKQ

REGIONAL WEATHER ROUNDUP
NATIONAL WEATHER SERVICE WAKEFIELD VA
400 AM EDT FRI MAR 24 2017

Note: "fair" indicates few or no clouds below 12,000 feet with no
significant weather and/or obstructions to visibility. * = Denotes
station may not report precipitation (e.g., rain,snow,etc.),
thunder or fog.

VAZ042-051-052>054-056-240900-
NORTHERN VIRGINIA

CITY           SKY/WX    TMP DP  RH WIND       PRES   REMARKS
WASH NATIONAL  PTCLDY    37  25  61 S13       30.50F
DULLES         CLOUDY    34  19  54 S7        30.47F
FORT BELVOIR   CLEAR     35  22  60 S7        30.50F
QUANTICO       CLEAR     38  27  64 S13       30.52F
FREDERICKSBRG* CLEAR     34  26  73 S6        30.51S
STAFFORD*      CLEAR     32  23  70 CALM      30.54F
WARRENTON      CLEAR     33  17  52 CALM      30.48F
CULPEPER*      PTCLDY    30  22  70 SE3       30.50S
MANASSAS*      CLOUDY    29  23  78 S6        30.49F
LEESBURG*      CLOUDY    36  25  64 S8        30.46F
WINCHESTER     CLOUDY    34  18  51 S6        30.40F
FRONT ROYAL*     N/A    N/A N/A N/A MISG        N/A
LURAY*         CLOUDY    43  23  45 SW10      30.41S
$$

VAZ048-049-060>072-079>083-240900-
CENTRAL AND SOUTH CENTRAL VIRGINIA

CITY           SKY/WX    TMP DP  RH WIND       PRES   REMARKS
RICHMOND       CLEAR     32  25  75 S7        30.53S
CHESTERFIELD*  FAIR      34  12  40 S6        30.54S
PETERSBURG*    CLEAR     31  26  82 CALM      30.55S
HANOVER        CLEAR     33  23  66 S6        30.54S
TAPPAHANNOCK*  CLEAR     33  11  39 S6        30.53F
QUINTON*       FAIR      32  25  73 S6        30.54R
CHARLOTTSVILLE PTCLDY    38  20  48 S13       30.47F
GORDONSVILLE*  CLOUDY    33  21  63 SW3       30.48F
ORANGE*        PTCLDY    32  21  64 CALM      30.50S
LOUISA*        CLEAR     37  27  65 CALM      30.48F
BUMPASS*       FAIR      33  23  65 S5        30.50F
FARMVILLE*     CLEAR     35  27  73 S5        30.49F
CREWE*         FAIR      33  27  78 S7        30.51F
FORT PICKETT*  FAIR      33  23  67 S8        30.52S
CHASE CITY*    FAIR      34  26  71 S3        30.50F
CLARKSVILLE*   FAIR      36  28  75 S5        30.51F
SOUTH HILL*    CLEAR     32  27  80 S5        30.58F
LAWRENCEVILLE* FAIR      32  26  78 CALM      30.53F
EMPORIA*       CLEAR     32  28  86 CALM      30.56S
$$

VAZ088>098-240900-
SOUTHEAST VIRGINIA

CITY           SKY/WX    TMP DP  RH WIND       PRES   REMARKS
NORFOLK        CLEAR     35  26  69 S6        30.54F
VIRGINIA BEACH CLEAR     31  23  72 CALM      30.54F
NORFOLK NAVAL  CLEAR     36  25  64 SE8       30.55F
WEST POINT*    CLEAR     35  26  71 S5        30.56S
SALUDA*        FAIR      33  28  80 CALM      30.53F
NEWPORT NEWS   CLEAR     36  25  64 S8        30.54F
LANGLEY AFB    CLEAR     37  28  69 S5        30.53F
FORT EUSTIS    CLEAR     36  28  73 S9        30.52F
WILLIAMSBURG*  CLEAR     37  28  70 CALM      30.55S
HR EXEC AP*    FAIR      25  19  80 CALM      30.54F
FRANKLIN*      CLEAR     31  25  80 S3        30.56F
US460-WAKEFLD  CLEAR     32  25  75 S3        30.55S
$$

VAZ020-022-025-037-045-240900-
WEST CENTRAL AND SOUTHWEST VIRGINIA

CITY           SKY/WX    TMP DP  RH WIND       PRES   REMARKS
STAUNTON*      CLOUDY    38  19  47 S8        30.44F
WAYNESBORO*    CLOUDY    39  21  47 SW3       30.43S
HOT SPRINGS VA CLOUDY    36  14  41 S7        30.37S
LYNCHBURG      CLOUDY    33  21  61 CALM      30.49F
DANVILLE       CLEAR     38  27  64 CALM      30.50F
SOUTH BOSTON*  FAIR      36  24  60 CALM      30.51F
MARTINSVILLE   CLEAR     28  22  79 CALM      30.50S
ROANOKE        CLOUDY    38  21  50 CALM      30.48S
BLACKSBURG     CLOUDY    40  24  51 CALM      30.46S
DUBLIN*        CLOUDY    37  29  71 CALM      30.43S
MARION*        CLOUDY    41  27  59 CALM      30.42S
HILLSVILLE*    CLOUDY    40  24  52 S6        30.40S
RICHLANDS*     CLOUDY    47  28  47 CALM      30.34S
WISE*          CLOUDY    48  28  46 S10G17    30.34S
ABINGDON*      CLOUDY    48  29  47 CALM      30.37S
$$

MDZ021>025-VAZ099-100-240900-
SOUTHERN MARYLAND AND THE DELMARVA PENINSULA

CITY           SKY/WX    TMP DP  RH WIND       PRES   REMARKS
PATUXENT RIVER CLEAR     36  31  82 S6        30.51F
BAY BRIDGE APT NOT AVBL
LEONARDTOWN    CLEAR     36  28  75 S5        30.53F
DOVER          CLOUDY    31  28  88 S9        30.49F
GEORGETOWN     CLOUDY    31  26  82 S7        30.52F
EASTON         CLEAR     34  29  82 S7        30.54F
CAMBRIDGE      PTCLDY    32  28  86 S5        30.52F
SALISBURY      CLEAR     27  25  92 SE3       30.52F
OCEAN CITY     CLEAR     38  26  62 VRB6      30.54F
WALLOPS ISLAND CLEAR     36  27  69 S8        30.54F
ACCOMACK*      CLEAR     36  25  64 SE8       30.53F
$$

NCZ012>017-030>032-240900-
NORTH CENTRAL AND EASTERN NORTH CAROLINA

CITY           SKY/WX    TMP DP  RH WIND       PRES   REMARKS
ROANOKE RAPIDS FAIR      30  28  93 CALM      30.55S
RALEIGH        PTCLDY    39  27  62 S5        30.53F
ELIZABETH CITY CLEAR     32  28  85 SE3       30.55F
AHOSKIE*         N/A     30  27  89 CALM      30.55F
EDENTON*       CLEAR     37  31  82 CALM      30.56F
CURRITUCK*     CLEAR     32  31  96 CALM      30.56F
KILL DEVIL HLS NOT AVBL
MANTEO         CLEAR     34  30  86 E5        30.55F
CAPE HATTERAS  CLEAR     44  37  76 NE7       30.54F
TARBORO*       NOT AVBL
GOLDSBORO      CLEAR     34  34  99 CALM      30.53F
WASHINGTON     CLEAR     30  28  90 CALM      30.55F
GREENVILLE     CLEAR     32  30  93 CALM      30.54F
NEW BERN       CLEAR     37  33  85 E6        30.55F
WILMINGTON     CLEAR     37  34  89 NE6       30.52R
$$

VAZ048-240900-
ELSEWHERE

CITY           SKY/WX    TMP DP  RH WIND       PRES   REMARKS
HARRISBURG PA  CLOUDY    36  22  56 S8        30.44F
BALTIMORE      PTCLDY    31  19  61 CALM      30.49F
ANNAPOLIS      PTCLDY    39  26  59 S7        30.50F
ANDREWS AFB    PTCLDY    32  23  68 S7        30.48F
PHILADELPHIA   CLOUDY    33  25  72 SW6       30.50F
HENDERSON NC   CLEAR     33  26  73 S5        30.51F
GREENSBORO     CLEAR     41  30  65 S10       30.47F
ROCKY MOUNT    CLEAR     33  31  92 CALM      30.55F
$$

VAZ100-240900-
MARINE

STATION/POSITION TIME  TEMP    WIND        PRES    WAVE   SWELL
                       AIR SEA DIR/SP/G            HT/PER HT/PER
                 (UTC) (F)     (DEG/KT/KT) (MB)    (FT/S) (FT/S)
CAPE MAY NJ      0748   37 42  170/  6/ 10 1033.1F
LEWES DE         0748   35 41  190/  6/  9 1033.4F
OCEAN-CITY-INLET 0748   40 43  200/ 12/ 16 1034.6F
WACHAPREAGUE VA  0748   41 46  180/ 10/ 13 1034.0F
THOMAS POINT MD  0800   40 43  200/ 19/ 20   N/A
GOOSES REEF MD   0800   40 43  190/ 14/ 16 1033.5    2/ 3
COVE POINT MD    0748   38     200/ 12/ 14 1033.8F
SOLOMONS ISLAND  0748   39 44  180/  7/  9   N/A
BISHOPS HEAD MD  0748   40 43  170/ 12/ 16 1033.7F
PINEY POINT MD   0748          200/  9/ 10   N/A
POTOMAC MD       0800   40 45  230/  8/ 10 1032.9    2/ 3
CAMBRIDGE MD     0748   37 44  180/  7/ 11 1032.8F
LEWISETTA VA     0748   37 46  220/  8/  9 1033.5F
RAPPAHANNOCK LGT 0748          160/ 14/ 16 1034.4F
STINGRAY PT      0800   42 46  190/ 16/ 19 1033.6    3/ 3
YORK RVR RNG VA  0748   41     180/ 18/ 19 1033.1F
YORKTOWN VA      0748   36 47  180/  7/  8 1033.8F
JAMESTOWN VA     0800   36 49  160/  8/ 10   N/A     1
DOMINION TERM VA 0748   38     170/ 10/ 12 1034.3F
KIPTOPEKE VA     0748      46  160/ 11/ 15   N/A
CHES BAY BRIDGE  0748   40 47  160/ 12/ 13 1034.2F
CAPE HENRY VA    0748   39     150/  7/ 10   N/A
WILLOUBY STN VA  0748   39     160/ 13/ 15 1034.8F
S CRANEY ISL VA  0748   40     170/ 10/ 12 1034.1F
CAPE HENRY BUOY  0742      45                N/A     3/ 7
CAPE CHARLES BUO 0751      45                N/A     3/ 9
OFFSHORE WE BUOY 0751      45                N/A     3/ 7
64NM E OF VA BCH 0750   45 49  120/  4/  6 1034.8F   4/ 9   3/ 9
DUCK PIER NC     0748   42 47   90/  8/ 10 1034.1F
44100 DUCK FRF   0735      47                N/A     4/ 8   2/11
44056 DUCK FRF   0730      47                N/A     3/ 9
OREGON INLET NC  0742   43 49   40/  6/  7 1034.9F
HATTERAS NC      0748   45 51   40/  7/  9 1033.7F
DIAMOND SHLS NC  0750   56 74   20/  6/ 12 1033.5F   7/10   7/10
CAPE LOOKOUT NC  0800   46      10/ 13/ 15 1033.2F
$$




USA.gov is the U.S. government's official web portal to all federal, state and local government web resources and services.